Regional Weather Roundup
Issued by NWS

Home | Current Version | Previous Version | Graphics & Text | Print | Product List | Glossary On
Versions: 1 2 3 4 5 6 7 8 9 10 11 12 13 14 15 16 17 18 19 20 21 22 23 24 25 26 27 28
000
ASUS45 KTFX 210810
RWRMT
MONTANA REGIONAL WEATHER ROUNDUP
NATIONAL WEATHER SERVICE GREAT FALLS MT
200 AM MDT MON AUG 21 2017

NOTE: "FAIR" INDICATES FEW OR NO CLOUDS BELOW 12000 FEET WITH NO
SIGNIFICANT WEATHER AND/OR OBSTRUCTIONS TO VISIBILITY.

MTZ001>007-043-210900-
WEST OF THE DIVIDE

CITY           SKY/WX    TMP DP  RH WIND       PRES   REMARKS
KALISPELL      CLEAR     50  41  71 CALM      30.10R
MISSOULA       CLEAR     55  38  52 N5        30.12R
BUTTE          CLOUDY    54  31  41 E3        30.21R
MULLAN PASS    CLEAR     53  32  44 NW5       30.25R
ANACONDA         N/A     54  32  43 S3        30.18R
DEER LODGE       N/A     55  36  47 CALM      30.19R
EUREKA           N/A     59  36  41 MISG      30.11R
HAMILTON         N/A     54  41  62 CALM      30.14R
LIBBY            N/A     52  39  62 CALM      30.11R
PLAINS           N/A     52  38  58 CALM      30.11
RONAN            N/A     50  42  73 CALM      30.14S
$$

MTZ008-052>055-210900-
SOUTHWEST MONTANA

CITY           SKY/WX    TMP DP  RH WIND       PRES   REMARKS
BOZEMAN        CLOUDY    53  38  56 S7        30.15R
DILLON         PTCLDY    56  30  37 S6        30.16S
W YELLOWSTONE  CLOUDY    48  36  61 CALM      30.24R
ENNIS          CLOUDY    55  32  41 SE7       30.22S
THREE FORKS      N/A     50  34  54 CALM      30.12R
$$

MTZ009-010-012-014-046-048-049-054-210900-
EAST SLOPES AND CENTRAL MONTANA

CITY           SKY/WX    TMP DP  RH WIND       PRES   REMARKS
CUT BANK       MOCLDY    53  36  52 W7        30.10R
GREAT FALLS    CLEAR     54  29  38 VRB3      30.11R
MALMSTROM AFB  CLEAR     58  30  33 SW6       30.09S
HELENA         CLOUDY    61  33  35 CALM      30.11S
AUGUSTA          N/A     54  34  46 MISG      30.13R
BOWMANS CRNR     N/A     59  28  31 CALM      30.12R
CHOTEAU          N/A     57  36  44 SW3       30.13S
CONRAD           N/A     48  37  65 CALM      30.11R
FAIRFIELD        N/A     55  33  43 CALM      30.11R
POWER            N/A     52  31  45 W3        30.10R
RAYNESFORD       N/A     51  31  46 E5        30.12R
ULM              N/A     54  29  39 SE3       30.10S
$$

MTZ011-013-016-021-045-047-050-051-210900-
NORTH CENTRAL MONTANA

CITY           SKY/WX    TMP DP  RH WIND       PRES   REMARKS
HAVRE          CLOUDY    66  33  29 SE5       30.03R
LEWISTOWN      MOCLDY    57  32  38 SW8       30.11R
N BAR RANCH      N/A     54  30  40 NW6       30.15R
CHINOOK          N/A     61  37  41 CALM      30.02S
DENTON           N/A     55  30  39 N3        30.06R
GEYSER           N/A     57  29  34 W12       30.11R
GRASS RANGE    MOCLDY    56  32  39 SW3       30.07R
JUDITH GAP     MOCLDY    53  31  42 N6        30.13S
WINIFRED       MOCLDY    61  29  29 N5        30.08S
$$

MTZ017>020-022>027-061-062-210900-
NORTHEAST MONTANA

CITY           SKY/WX    TMP DP  RH WIND       PRES   REMARKS
GLASGOW        CLOUDY    65  33  30 NW7       29.98F
JORDAN           N/A     60  34  37 CALM      30.00F
SIDNEY         CLOUDY    57  45  64 SW8       29.97S
WOLF POINT     CLOUDY    57  38  48 NW9       29.96S
MALTA          CLOUDY    64  36  34 SW6       30.00S
PLENTYWOOD       N/A     63  43  48 CALM      29.94F
POPLAR           N/A     64  43  45 W3        29.95F
SCOBEY           N/A     60  35  39 S5        29.95S
$$

MTZ028>42-056>058-210900-
SOUTHCENTRAL AND SOUTHEAST MONTANA

CITY           SKY/WX    TMP DP  RH WIND       PRES   REMARKS
BAKER          CLEAR     59  46  62 NW5       29.99R
BILLINGS       CLOUDY    66  34  30 SW9       30.07R
LIVINGSTON     PTCLDY    55  32  41 W3        30.14R
MILES CITY     PTCLDY    64  41  42 NW9       29.98R
BIG TIMBER     PTCLDY    55  30  38 SW8       30.15S
EKALAKA          N/A     61  47  59 SE8       29.98R
HARLOWTON        N/A     57  31  36 MISG      30.12S
LAUREL           N/A     62  32  32 W3        30.06F
$$

REGIONAL REPORTS...DAKOTAS

CITY           SKY/WX    TMP DP  RH WIND       PRES   REMARKS
WILLISTON      CLEAR     57  45  64 SW5       29.96S
MINOT          MOCLDY    63  50  62 S7        29.95F
DICKINSON      MOCLDY    60  47  61 E8        30.00S
BEACH          MOCLDY    54  48  82 SW5       30.01S
CROSBY         MOCLDY    64  43  45 S12       29.94F
TIOGA            N/A     59  45  58 S12       29.97S
WATFORD CITY     N/A     57  45  62 S6        29.96S
BISMARCK       CLOUDY    54  49  83 E7        29.97F
GRAND FORKS    CLOUDY    55  52  89 CALM      29.99F
FARGO          CLOUDY    58  55  90 SW3       30.01F
BUFFALO SD       N/A     61  49  64 S23G31    29.90F
RAPID CITY     PTCLDY    61  52  72 SE12      29.98F
$$

REGIONAL REPORTS...WYOMING/IDAHO/WASHINGTON

CITY           SKY/WX    TMP DP  RH WIND       PRES   REMARKS
GILLETTE       CLEAR     53  43  68 CALM      30.05R
SHERIDAN       CLOUDY    55  43  63 S3        30.06R
BUFFALO WY     CLEAR     59  36  42 W10       30.12S
CODY           CLOUDY    60  34  37 SW3       30.15S
YELLOWSTONE LA   N/A     41  35  79 CALM      30.32S
IDAHO FALLS    CLEAR     57  39  51 SW9       30.11R
SALMON         PTCLDY    59  34  39 CALM      30.12R
BOISE          CLOUDY    66  36  32 CALM      30.02R
SPOKANE        PTCLDY    63  38  39 S5        30.10R
$$

REGIONAL REPORTS...ALBERTA

CITY           SKY/WX    TMP DP  RH WIND       PRES   REMARKS
EDMONTON       CLEAR     46  45  93 W7        30.07R
CALGARY        CLEAR     48  39  71 CALM      30.15S
LETHBRIDGE     CLOUDY    59  39  47 NW7       30.11R
MEDICINE HAT   CLOUDY    63  41  45 NE12G17   30.07R
$$

REGIONAL REPORTS...SASKATCHEWAN

CITY           SKY/WX    TMP DP  RH WIND       PRES   REMARKS
SWIFT CURRENT  CLOUDY    50  37  62 NW6       30.04R
REGINA         CLOUDY    57  41  54 N14       29.95R
SASKATOON      CLOUDY    50  45  81 W6        30.00S
$$




USA.gov is the U.S. government's official web portal to all federal, state and local government web resources and services.